Latest Coastal Weather Observations for Spring Bay

IDT60701

Issued at 1:02 pm EST Tuesday 21 April 2015 (issued every 10 minutes, with the page automatically refreshed every 10 minutes)

About coastal observations | Map of coastal stations | Coastal observations for TAS | Marine services | Other Formats
Station Details ID: 092133 Name: SPRING BAY NTC AWS Lat: -42.55 Lon: 147.93 Height: 0.0 m
Data from the previous 72 hours. | See also: Recent months for locations in Tasmania
Date/Time
EST
Temp

°C
Wind Pressure Rain
since 9am
mm
Weather Cloud Vis
km
Sea
Height
m
Swell
Dir
 
Speed
knots
Gust
knots
hPa Trend Height
m
Period
s
Dir
21/01:00pm 16.2 - - - 1031.8 - - - - - - - - -
21/12:30pm 16.5 - - - 1032.0 - - - - - - - - -
21/12:00pm 15.9 - - - 1032.4 - - - - - - - - -
21/11:30am 16.1 - - - 1032.7 - - - - - - - - -
21/11:00am 14.9 - - - 1033.0 - - - - - - - - -
21/10:30am 14.3 - - - 1033.2 - - - - - - - - -
21/10:00am 13.5 - - - 1033.6 - - - - - - - - -
21/09:30am 13.1 - - - 1033.7 - - - - - - - - -
21/09:00am 12.6 - - - 1033.7 - - - - - - - - -
21/08:30am 12.1 - - - 1033.6 - - - - - - - - -
21/08:00am 11.7 - - - 1033.6 - - - - - - - - -
21/07:30am 11.2 - - - 1033.4 - - - - - - - - -
21/07:00am 10.8 - - - 1033.4 - - - - - - - - -
21/06:30am 11.0 - - - 1033.3 - - - - - - - - -
21/06:00am 11.0 - - - 1033.4 - - - - - - - - -
21/05:30am 10.7 - - - 1033.1 - - - - - - - - -
21/05:00am 10.4 - - - 1033.1 - - - - - - - - -
21/04:30am 10.7 - - - 1033.0 - - - - - - - - -
21/04:00am 10.3 - - - 1032.9 - - - - - - - - -
21/03:30am 10.0 - - - 1033.2 - - - - - - - - -
21/03:00am 9.0 - - - 1033.3 - - - - - - - - -
21/02:30am 9.3 - - - 1033.5 - - - - - - - - -
21/02:00am 9.1 - - - 1033.6 - - - - - - - - -
21/01:30am 7.8 - - - 1033.6 - - - - - - - - -
21/01:00am 8.6 - - - 1033.8 - - - - - - - - -
21/12:30am 8.1 - - - 1033.8 - - - - - - - - -
21/12:00am 8.2 - - - 1033.9 - - - - - - - - -
 
Date/Time
EST
Temp

°C
Wind Pressure Rain
since 9am
mm
Weather Cloud Vis
km
Sea
Height
m
Swell
Dir
 
Speed
knots
Gust
knots
hPa Trend Height
m
Period
s
Dir
20/11:30pm 8.2 - - - 1034.0 - - - - - - - - -
20/11:00pm 7.9 - - - 1034.2 - - - - - - - - -
20/10:30pm 7.9 - - - 1034.3 - - - - - - - - -
20/10:00pm 8.2 - - - 1034.5 - - - - - - - - -
20/09:30pm 8.8 - - - 1034.5 - - - - - - - - -
20/09:00pm 9.3 - - - 1034.6 - - - - - - - - -
20/08:30pm 9.2 - - - 1034.6 - - - - - - - - -
20/08:00pm 9.5 - - - 1034.5 - - - - - - - - -
20/07:30pm 10.4 - - - 1034.5 - - - - - - - - -
20/07:00pm 10.3 - - - 1034.4 - - - - - - - - -
20/06:30pm 10.9 - - - 1034.3 - - - - - - - - -
20/06:00pm 11.1 - - - 1034.0 - - - - - - - - -
20/05:30pm 12.1 - - - 1033.7 - - - - - - - - -
20/05:00pm 12.7 - - - 1033.5 - - - - - - - - -
20/04:30pm 13.2 - - - 1033.5 - - - - - - - - -
20/04:00pm 13.5 - - - 1033.7 - - - - - - - - -
20/03:30pm 13.9 - - - 1033.7 - - - - - - - - -
20/03:00pm 13.8 - - - 1033.7 - - - - - - - - -
20/02:30pm 15.0 - - - 1033.7 - - - - - - - - -
20/02:00pm 15.2 - - - 1033.8 - - - - - - - - -
20/01:30pm 16.1 - - - 1034.0 - - - - - - - - -
20/01:00pm 15.0 - - - 1034.3 - - - - - - - - -
20/12:30pm 14.0 - - - 1034.7 - - - - - - - - -
20/12:00pm 13.8 - - - 1035.1 - - - - - - - - -
20/11:30am 13.1 - - - 1035.6 - - - - - - - - -
20/11:00am 13.1 - - - 1035.8 - - - - - - - - -
20/10:30am 12.2 - - - 1035.9 - - - - - - - - -
20/10:00am 11.1 - - - 1036.1 - - - - - - - - -
20/09:30am 10.1 - - - 1036.2 - - - - - - - - -
20/09:00am 8.6 - - - 1036.3 - - - - - - - - -
20/08:30am 8.5 - - - 1036.3 - - - - - - - - -
20/08:00am 8.3 - - - 1036.0 - - - - - - - - -
20/07:30am 7.7 - - - 1035.7 - - - - - - - - -
20/07:00am 7.5 - - - 1035.5 - - - - - - - - -
20/06:30am 7.0 - - - 1035.3 - - - - - - - - -
20/06:00am 6.8 - - - 1035.0 - - - - - - - - -
20/05:30am 6.3 - - - 1034.9 - - - - - - - - -
20/05:00am 6.8 - - - 1034.7 - - - - - - - - -
20/04:30am 6.7 - - - 1034.7 - - - - - - - - -
20/04:00am 6.7 - - - 1034.5 - - - - - - - - -
20/03:30am 6.6 - - - 1034.4 - - - - - - - - -
20/03:00am 6.8 - - - 1034.5 - - - - - - - - -
20/02:30am 6.8 - - - 1034.6 - - - - - - - - -
20/02:00am 7.2 - - - 1034.8 - - - - - - - - -
20/01:30am 7.5 - - - 1034.7 - - - - - - - - -
20/01:00am 7.5 - - - 1034.4 - - - - - - - - -
20/12:30am 8.1 - - - 1034.2 - - - - - - - - -
20/12:00am 8.4 - - - 1034.0 - - - - - - - - -
 
Date/Time
EST
Temp

°C
Wind Pressure Rain
since 9am
mm
Weather Cloud Vis
km
Sea
Height
m
Swell
Dir
 
Speed
knots
Gust
knots
hPa Trend Height
m
Period
s
Dir
19/11:30pm 8.2 - - - 1034.1 - - - - - - - - -
19/11:00pm 7.8 - - - 1034.0 - - - - - - - - -
19/10:30pm 8.6 - - - 1033.9 - - - - - - - - -
19/10:00pm 8.5 - - - 1033.8 - - - - - - - - -
19/09:30pm 9.2 - - - 1033.6 - - - - - - - - -
19/09:00pm 9.4 - - - 1033.2 - - - - - - - - -
19/08:30pm 9.2 - - - 1032.6 - - - - - - - - -
19/08:00pm 9.7 - - - 1032.1 - - - - - - - - -
19/07:30pm 8.2 - - - 1031.6 - - - - - - - - -
19/07:00pm 8.8 - - - 1031.1 - - - - - - - - -
19/06:30pm 10.9 - - - 1030.5 - - - - - - - - -
19/06:00pm 11.7 - - - 1030.0 - - - - - - - - -
19/05:30pm 11.8 - - - 1029.4 - - - - - - - - -
19/05:00pm 12.2 - - - 1028.8 - - - - - - - - -
19/04:30pm 12.2 - - - 1028.4 - - - - - - - - -
19/04:00pm 12.3 - - - 1028.0 - - - - - - - - -
19/03:30pm 12.3 - - - 1027.7 - - - - - - - - -
19/03:00pm 12.3 - - - 1027.4 - - - - - - - - -
19/02:30pm 12.1 - - - 1027.2 - - - - - - - - -
19/02:00pm 12.1 - - - 1026.6 - - - - - - - - -
19/01:30pm 12.1 - - - 1026.3 - - - - - - - - -
19/01:00pm 11.8 - - - 1025.9 - - - - - - - - -
19/12:30pm 11.5 - - - 1025.8 - - - - - - - - -
19/12:00pm 11.0 - - - 1025.7 - - - - - - - - -
19/11:30am 10.9 - - - 1025.2 - - - - - - - - -
19/11:00am 11.6 - - - 1024.7 - - - - - - - - -
19/10:30am 11.3 - - - 1024.2 - - - - - - - - -
19/10:00am 11.0 - - - 1023.8 - - - - - - - - -
19/09:30am 10.5 - - - 1023.4 - - - - - - - - -
19/09:00am 10.8 - - - 1022.9 - - - - - - - - -
19/08:30am 10.7 - - - 1022.1 - - - - - - - - -
19/08:00am 10.3 - - - 1021.4 - - - - - - - - -
19/07:30am 9.8 - - - 1020.5 - - - - - - - - -
19/07:00am 9.9 - - - 1019.6 - - - - - - - - -
19/06:30am 9.5 - - - 1018.6 - - - - - - - - -
19/06:00am 9.1 - - - 1018.0 - - - - - - - - -
19/05:30am 9.4 - - - 1017.4 - - - - - - - - -
19/05:00am 9.6 - - - 1016.8 - - - - - - - - -
19/04:30am 9.8 - - - 1015.7 - - - - - - - - -
19/04:00am 10.3 - - - 1014.7 - - - - - - - - -
19/03:30am 10.3 - - - 1014.0 - - - - - - - - -
19/03:00am 10.5 - - - 1013.0 - - - - - - - - -
19/02:30am 10.6 - - - 1012.2 - - - - - - - - -
19/02:00am 10.7 - - - 1012.1 - - - - - - - - -
19/01:30am 11.0 - - - 1011.7 - - - - - - - - -
19/01:00am 11.5 - - - 1011.4 - - - - - - - - -
19/12:30am 11.6 - - - 1011.1 - - - - - - - - -
19/12:00am 11.1 - - - 1010.7 - - - - - - - - -
 
Date/Time
EST
Temp

°C
Wind Pressure Rain
since 9am
mm
Weather Cloud Vis
km
Sea
Height
m
Swell
Dir
 
Speed
knots
Gust
knots
hPa Trend Height
m
Period
s
Dir
18/11:30pm 11.3 - - - 1010.5 - - - - - - - - -

Other Formats:

Comma delimited format used in spreadsheet applications
http://www.bom.gov.au/fwo/IDT60701/IDT60701.95987.axf

JavaScript Object Notation format (JSON) in row-major order
http://www.bom.gov.au/fwo/IDT60701/IDT60701.95987.json